Fairbanks, AK

9:44 AM AKST on February 27, 2017 (GMT -0900)
Fairbanks International

Weather History for PAFA - January, 2012

Change the Weather History Date:

Thursday, January 12, 2012

  Actual Average Record
Temperature  
Mean Temperature -6 °F -8 °F  
Max Temperature 2 °F 0 °F 39 °F (1984)
Min Temperature -14 °F -17 °F -56 °F (1934)
Degree Days  
Heating Degree Days 71 73  
Month to date heating degree days 1049 872  
Since 1 July heating degree days 7050 7144  
Cooling Degree Days 0 0  
Month to date cooling degree days 0 0  
Year to date cooling degree days 0 0  
Moisture  
Dew Point -16 °F    
Average Humidity 73    
Maximum Humidity 79    
Minimum Humidity 67    
Precipitation  
Precipitation 0.06 in 0.02 in 0.40 in (1963)
Month to date precipitation 0.37 0.25  
Year to date precipitation 0.37 0.25  
Snow  
Snow 0.70 in 0.30 in 11.00 in (2007)
Month to date snowfall 7.1 4.4  
Since 1 July snowfall 32.7 42.3  
Snow Depth 17.00 in    
Sea Level Pressure  
Sea Level Pressure 30.09 in    
Wind  
Wind Speed 7 mph (WSW)    
Max Wind Speed 14 mph    
Max Gust Speed 16 mph    
Visibility 4 miles    
Events Snow    
T = Trace of Precipitation, MM = Missing Value Source: NWS Daily Summary

Daily Weather History Graph

Daily Weather History Graph

Search for Another Location

Airport or City:

Trip Planner

Search our weather history database for the weather conditions in past years. The results will help you decide how hot, cold, wet, or windy it might be!

Date:

Astronomy

Jan. 12, 2012 Rise Set
Actual Time 10:34 AM AKST 3:25 PM AKST
Civil Twilight 9:21 AM AKST 4:38 PM AKST
Nautical Twilight 8:13 AM AKST 5:46 PM AKST
Astronomical Twilight 7:14 AM AKST 6:45 PM AKST
Moon 9:52 PM AKST (1/12) 10:25 AM AKST (1/12)
Length of Visible Light 7h 17m
Length of Day
4h 50m
Waning Gibbous, 86% of the Moon is Illuminated
Jan 12
Waning Gibbous
Jan 16
Last Quarter
Jan 22
New
Jan 30
First Quarter
Feb 7
Full

Hourly Weather History & Observations

Time (AKST) Temp. Windchill Dew Point Humidity Pressure Visibility Wind Dir Wind Speed Gust Speed Precip Events Conditions
12:53 AM -0.0 °F -14.2 °F -5.1 °F 79% 29.86 in 3.0 mi WSW 8.1 mph - 0.00 in Snow Light Snow
1:53 AM -0.9 °F -8.9 °F -6.0 °F 79% 29.87 in 6.0 mi SW 3.5 mph - 0.00 in Snow Light Snow
3:53 AM -4.0 °F -12.4 °F -9.9 °F 76% 29.89 in 4.0 mi Variable 3.5 mph - 0.00 in Snow Light Snow
4:53 AM -6.0 °F - -11.0 °F 79% 29.90 in 7.0 mi Calm Calm - 0.00 in Snow Light Snow
5:53 AM -7.1 °F -18.1 °F -11.9 °F 79% 29.92 in 7.0 mi SSW 4.6 mph - 0.00 in Snow Light Snow
6:53 AM -7.1 °F -15.9 °F -11.9 °F 79% 29.93 in 8.0 mi Variable 3.5 mph - 0.00 in Snow Light Snow
7:53 AM -7.1 °F -19.9 °F -11.9 °F 79% 29.95 in 7.0 mi WSW 5.8 mph - 0.00 in Snow Light Snow
8:53 AM -7.1 °F -19.9 °F -14.1 °F 72% 29.96 in 7.0 mi SW 5.8 mph - 0.00 in Snow Light Snow
9:53 AM -8.0 °F -23.9 °F -14.1 °F 75% 29.99 in 7.0 mi WSW 8.1 mph - 0.00 in Snow Light Snow
10:53 AM -8.0 °F -25.0 °F -15.0 °F 71% 30.01 in 7.0 mi WSW 9.2 mph - 0.00 in Snow Light Snow
11:53 AM -9.0 °F -25.2 °F -15.0 °F 75% 30.03 in 4.0 mi WSW 8.1 mph - 0.00 in Snow Light Snow
12:53 PM -9.0 °F -26.4 °F -16.1 °F 71% 30.07 in 5.0 mi WSW 9.2 mph - 0.00 in Snow Light Snow
1:53 PM -9.0 °F -26.4 °F -16.1 °F 71% 30.08 in 3.0 mi WSW 9.2 mph - 0.00 in Snow Light Snow
2:12 PM -9.4 °F -25.6 °F -16.6 °F 71% 30.04 in 1.5 mi WSW 8.1 mph - 0.00 in Snow Light Snow
2:53 PM -9.9 °F -27.5 °F -16.1 °F 74% 30.11 in 1.5 mi WSW 9.2 mph - 0.01 in Snow Light Snow
3:11 PM -9.4 °F -25.6 °F -16.6 °F 71% 30.07 in 6.0 mi West 8.1 mph - 0.00 in Snow Light Snow
3:53 PM -9.9 °F -31.3 °F -18.0 °F 68% 30.13 in 10.0 mi WSW 13.8 mph - 0.00 in Snow Light Snow
4:53 PM -11.0 °F -27.6 °F -18.9 °F 68% 30.16 in 4.0 mi WSW 8.1 mph 16.1 mph 0.00 in Snow Light Snow
5:53 PM -11.0 °F -28.8 °F -18.0 °F 71% 30.19 in 3.0 mi West 9.2 mph - 0.00 in Snow Light Snow
6:17 PM -11.2 °F -27.8 °F -18.4 °F 70% 30.14 in 2.0 mi West 8.1 mph - 0.01 in Snow Light Snow
6:53 PM -11.9 °F -28.7 °F -18.9 °F 71% 30.22 in 2.0 mi WSW 8.1 mph - 0.02 in Snow Light Snow
7:00 PM -11.2 °F -26.4 °F -18.4 °F 70% 30.17 in 1.5 mi WSW 6.9 mph - 0.00 in Snow Light Snow
7:16 PM -11.2 °F -27.8 °F -18.4 °F 70% 30.17 in 2.0 mi West 8.1 mph - 0.00 in Snow Light Snow
7:53 PM -11.9 °F -27.3 °F -18.9 °F 71% 30.25 in 1.8 mi WSW 6.9 mph - 0.01 in Snow Light Snow
8:08 PM -11.2 °F -23.0 °F -18.4 °F 70% 30.19 in 2.0 mi WSW 4.6 mph - 0.00 in Snow Light Snow
8:53 PM -11.9 °F -32.0 °F -20.0 °F 67% 30.27 in 3.0 mi West 11.5 mph - 0.01 in Snow Light Snow
9:53 PM -13.0 °F -30.0 °F -20.0 °F 71% 30.29 in 3.0 mi WSW 8.1 mph - 0.00 in Snow Light Snow
10:53 PM -13.0 °F -33.4 °F -20.9 °F 68% 30.32 in 3.0 mi West 11.5 mph - 0.01 in Snow Light Snow
11:53 PM -14.1 °F -29.9 °F -20.9 °F 71% 30.36 in 2.5 mi WSW 6.9 mph - 0.00 in Snow Light Snow